Погода в Любашевке

Погода в Любашевке : погода сейчас, прогноз погоды и архив. Всё, что Вы хотите узнать о погоде в Любашевке!

Хотите узнать прогноз погоды в Любашевке? Тогда Вам сюда: Погода в Любашевке

Поиск расширенной информации на нашем сайте:

Полезная информация:

Другие новости

Новости СМИ2

Главная страница сайта

Новости сайта

03.07.2017

Напоминаем, что на нашем специализированном сайте Метеоцентр.Азия вы можете получить высокодетализированные автоматические прогнозы погоды по пунктам России, СНГ и мира в авиационном формате (включающие направление и скорость ветра, видимость, явления погоды, количество и форму облачности, нижнюю и верхнюю границу облачности).

Рекомендуем:

Погода в Любашевке - сегодня

Время (UTC), дата Ветер
(°,м/с) 
Видим.   Явления Облачность Т
(°С)
Тd
(°С)
f(%) Тe
(°С)
Pmin
(гПа)
dP
(гПа)
Po
(мм)
O2
(г/м3)
Тmin Tmax R s Состояние
почвы
00 17.06.19 020 (С) 20000 м    ясно 
+20.1 +16.4 79 +31  1014.1  0.1  745  276           
03 17.06.19 300 (СЗ) 12000 м    1/0 верхняя 
[Cc]
+18 +15.8 87 +29  1015.3  746  278           
06 17.06.19 050 (СВ) 20000 м    1/0 верхняя 
[Ci fib]
+24.3 +16.5 62 +36  1015.5  0.6  746  272  +17.4  +3.5       
09 17.06.19 060 (СВ) 20000 м    3/0 верхняя 
[Ci fib]
+27.9 +13.4 41 +34  1015  -0.2  746  270           
12 17.06.19 020 (С) 20000 м    1/0 верхняя 
[Ci fib]
+29.5 +12.4 35 +34  1014.2  -0.7  745  269           
15 17.06.19 050 (СВ) 20000 м    1/0 верхняя 
[Ci fib]
+29.7 +13.9 38 +37  1013.5  -0.7  745  268           
18 17.06.19 350 (С) 20000 м    8/3 600 м верхняя 
[Sc|Ci]
+23.9 +15.6 60 +34  1015  1.1  746  273    +30.4       
21 17.06.19 тихо ()   20000 м    6/0 верхняя 
[Ci fib]
+20.3 +16.2 77 +31  1015.9  0.6  746  276           
00 18.06.19 340 (С) 10 км    3/0 верхняя 
[Ci fib]
+19.1 +16.3 84 +31  1016.1  0.2  746  277           
03 18.06.19 350 (С) 8000 м  дымка  1/0 верхняя 
[Ci fib]
+18.1 +16.6 91 +31  1015.7  -0.5  746  278           
06 18.06.19 360 (С) 20000 м    ясно 
+23.5 +17.8 70 +38  1015.9  0.6  746  273  +17.6  +3.8       
09 18.06.19 350 (С) 20000 м    6/3 1000 м верхняя 
[Cu med, cong|Ci fib]
+27.9 +13.8 42 +35  1015.7  0.1  746  270           
12 18.06.19 360 (С) 20000 м    8/8 600 м 
[Sc diur, vesp]
+29.9 +10.9 31 +32  1014.6  -1  746  269           
15 18.06.19 010 (С) 8000 м  слаб. ливневой дождь, в посл. час гроза  9/8 600 м кучево-дожд., средняя 
[Cb calv|Ac und]
+23.4 +18.3 73 +39  1014.6  -0.4  745  272           
18 18.06.19 360 (С) 20000 м  {гроза, ливн. осадки}  8/0 средняя, верхняя 
[Ac trans|Ci]
+23.2 +20.4 84 +43  1014.7  0.1  745  272    +30.4  12     
21 18.06.19 010 (С) 10 км    6/0 средняя, верхняя 
[Ac trans|Ci]
+21 +18.4 85 +36  1015.7  0.8  746  275           
00 19.06.19 020 (С) 10 км    8/8 600 м 
[Sc]
+19.9 +17.6 87 +35  1015.4  -0.4  746  276           
03 19.06.19 340 (С) 10 км    3/1 1000 м верхняя 
[Cu hum|Ci fib]
+19.1 +16.9 87 +33  1015.5  0.1  746  277           
06 19.06.19 030 (СВ) 20000 м    ясно 
+23.3 +17.9 72 +38  1015.4  0.2  746  273  +18.6         
09 19.06.19 030 (СВ) 20000 м    3/3 1000 м 
[Cu hum]
+27 +16.9 54 +39  1015  -0.2  746  270           
12 19.06.19 030 (СВ) 20000 м    4/4 1000 м 
[Cu hum]
+28.5 +16.4 48 +40  1013.8  -1  745  268           
15 19.06.19 040 (СВ) 20000 м    3/3 1000 м 
[Cu hum]
+28.5     0.8  744             
18 19.06.19 360 (С) 20000 м    ясно 
+24 +18.2 70 +39  1012.9  -0.4  744  271    +29  150    мокрая 
21 19.06.19 020 (С) 20000 м    ясно 
+21.2 +17.2 78 +34  1013.7  0.6  745  275           
00 20.06.19 350 (С) 20000 м    9/0 средняя 
[Ac trans]
+20 +16.4 80 +31  1013.8  745  276           
Время (UTC), дата Ветер
(°,м/с) 
Видим.   Явления Облачность Т
(°С)
Тd
(°С)
f(%) Тe
(°С)
Pmin
(гПа)
dP
(гПа)
Po
(мм)
O2
(г/м3)
Тmin Tmax R s Состояние
почвы

Для получения пояснительной информации подведите курсор к названию столбца.

ПОГОДА в Любашевке - архив

Всё, что Вы хотите узнать о погоде в Любашевке - удобно и подробно!

Выберите нужную дату (начиная с 1 января 2018* года) и нажмите кнопку "Найти".
Будут отображены архивные сводки погоды по пункту Любашевка, начиная с указанной даты.


Отображать данные в формате CSV (для использования в таблицах Excel)


Внимание! Наш архив погоды предназначен исключительно для личного некоммерческого использования в познавательных целях. Если Вам необходимы официальные справки о состоянии погоды (для производственных, юридических, коммерческих и т.п. целей), обращайтесь в органы Росгидромета.

*Примечание: данная дата относится к архиву по метеостанциям СССР (Россия, СНГ, Балтия).
Архив по метеостанциям Зарубежной Европы и Азии (кроме Китая) хранится 10 дней, по другим регионам земного шара (Китай, Африка, Америка, Австралия, Океания) - 1 день.

Любашевка - район местоположения метеостанции


Название, широта, долгота, высота метеостанции:
Любашевка 47.9°ш. 30.3°д. 183 м над ур. моря [Украина]

Дополнительная информация

В oтличие oт бoльшинства пoгoдных сайтoв мы публикуем пoдрoбную метеoинфoрмацию в детальнoм прoфессиoнальнoм фoрмате.

Характеристики температуры и влажнoсти вoздуха измеряются на высoте 2 м в тени вдали oт зданий и деревьев.
Скoрoсть ветра измеряется на высoте 10 м (на урoвне рoста челoвека скoрoсть ветра ниже в 1.5-2 раза). Если метеoстанция нахoдится в гoрoде или в лесу, тo скoрoсть ветра занижена на 2-4 м/с пo сравнению с oткрытым местoм. Скoрoсть ветра над акватoриями крупных рек и oзёр, а также на вершинах хoлмoв на 2-5 м/с выше, чем в oбычных услoвиях.
Атмoсфернoе давление в разных тoчках местнoсти мoжет значительнo oтличаться oт давления на метеoстанции, в зависимoсти oт услoвий рельефа (при пoдъёме на 10 м давление пoнижается примернo на 1 мм рт.ст.).